Location: Buch
(49.7331°N, 12.1098°E)
Time: 09:10:59
(UTC+00:00)

Cosmos 2228 Rocket - Pass Details

Date: 12 May 2021
Orbit: 619 x 651 km, 82.5° (Epoch: 13 June)

Event Time Altitude Azimuth Distance (km) Brightness Sun altitude
Exits shadow 20:29:54 21° 153° (SSE) 1,425 4.3 -13.5°
Maximum altitude 20:32:30 42° 93° (E) 896 3.6 -13.7°
Drops below altitude 10° 20:36:44 10° 22° (NNE) 2,029 6.1 -14.1°
Sets 20:39:05 0° 16° (NNE) 2,948 7.1 -14.4°
